ARIANE 5 R/B, 41030

Orbit data source: Space-Track

ARIANE 5 R/B, 41030 is space debris in HEO originally from a launch on Tue, 10 Nov 2015 UTC launched from the French Guiana (FRGUI). Debris objects in space refer to the collection of defunct objects orbiting the Earth. Examples of debris include non-operational satellites, rocket bodies, and fragments generated from explosions, collisions, or faulty payload assembly.

Loading next visibility...
Identifier
41030, 2015-065C
Orbit
HEO
Country
Flag of FRFR
Related business
Manufacturer
Airbus Safran
Mission
Spacecraft
Bus & Motor
ESC-A, Unknown motor
Mass
~5,000 kg wet, ~5,000 kg dry
Launch date (UTC)
2015-11-10 (10 years ago)
Launch vehicle
Unknown
Launch site
French Guiana (FRGUI)
Object type
Payload
Rocket body
Debris
Shape & HBR
Cyl + 1 Nozzle, 3.5 m
Radar Cross Section
41.627 m², Large (>1 m²)

Expand to show TLE details & history
Last TLE update: 22 hours ago

TLE from 22 hours ago
0 ARIANE 5 R/B
1 41030U 15065C   25305.94363353  .00002303  00000-0  73673-3 0  9993
2 41030   4.5891  26.5090 7045902 128.3327 318.4873  2.57284132 86868
Epoch: 2025-11-01T22:38Z
TLE epoch observation values (Epoch: 2025-11-01T22:38:49.936Z)
Latitude
0.0001°
Longitude
5.27007°
Altitude
13,802.094 km
Speed
4.667 km/s
True Right ascension
01h 45m 46s
True Declination
0° 00' 00"
Sunlit
Object was in partial shadow at epoch
Visualization orbit readout
Latitude
Unknown
Longitude
Unknown
Altitude
Unknown
Speed
Unknown
Apparent Right ascension
Unknown
Apparent Declination
Unknown
Sunlit
N/A
Visualization observer readout
Local Sidereal Time
16:50:36
Azimuth
Unknown
Elevation
Unknown
Doppler factor
Unknown
Orbital elements
Apogee altitude
31,979.471 km
Perigee altitude
269.334 km
Semi-major axis
22,502.539 km
Eccentricity
0.70459
Inclination
4.5891°
RAAN
26.509°
Arg. of periapsis
128.3327°
True anomaly
231.62738°
Mean anomaly
318.4873°
Eccentric anomaly
278.56777°
Mean motion
0.64298 °/min
Orbital period
559.9 mins
BSTAR
0.00073673
Loading maneuver chart data...
Computing Atmospheric mass density...
Loading historical data...
Loading historical data...
Loading historical data...
Loading historical data...
Loading historical data...
Loading historical data...
Loading historical data...
Other satellites on launch #65 in the year 2015 (2015-11-10 UTC)

Documentation

Showing up to 5 results
|